Regional Weather Roundup
Issued by NWS

Home | Current Version | Previous Version | Text Only | Print | Product List | Glossary On
Versions: 1 2 3 4 5 6 7 8 9 10 11 12 13 14 15 16 17 18 19 20 21 22 23 24 25 26 27 28 29 30 31 32 33 34 35 36 37 38 39 40 41 42 43 44 45 46 47 48 49 50
000
ASUS43 KTOP 290659
RWRKS

WEATHER ROUNDUP FOR KANSAS
NATIONAL WEATHER SERVICE GOODLAND KS
200 AM CDT SUN MAY 29 2016

NOTE:  "FAIR" INDICATES FEW OR NO CLOUDS BELOW 12,000 FEET WITH NO
SIGNIFICANT WEATHER AND/OR OBSTRUCTIONS TO VISIBILITY.

KSZ001>006-013>018-027>032-041>047-290800-
NORTHWEST KANSAS

CITY           SKY/WX    TMP DP  RH WIND       PRES   REMARKS
GOODLAND       MOCLDY    57  48  72 W9        30.10R
HAYS           CLEAR     55  48  76 CALM      30.04S
HILL CITY      CLEAR     55  53  93 W3        30.04S
RUSSELL        CLEAR     59  55  87 S10       30.02S
$$

KSZ061>065-074>080-084>089-290800-
SOUTHWEST KANSAS

CITY           SKY/WX    TMP DP  RH WIND       PRES   REMARKS
DODGE CITY     CLEAR     57  53  86 SE8       30.06F
ELKHART          N/A     62  49  62 N6          N/A
GARDEN CITY    CLEAR     58  50  75 SE8       30.07S
GREAT BEND     CLEAR     61  52  72 S8        30.04S
LIBERAL        MOCLDY    63  46  55 SE5       30.07S
$$

KSZ066>073-081>083-090>101-290800-
SOUTHEAST KANSAS

CITY           SKY/WX    TMP DP  RH WIND       PRES   REMARKS
CHANUTE        CLEAR     63  60  90 S5        30.03F
COFFEYVILLE    CLEAR     64  62  93 SE3       30.04S
HUTCHINSON     CLEAR     59  57  93 CALM      30.03F
MEDICINE LODGE   N/A     67  53  61 E7        30.02F
NEWTON         CLEAR     61  55  82 SE6       30.07S
PARSONS        CLEAR     62  61  96 CALM      30.05S
WICHITA INTL   CLEAR     66  59  78 E3        30.03F
WICHITA JABRA  CLEAR     63  59  87 E3        30.03F
WINFIELD       CLEAR     63  59  87 CALM      30.04S
$$

KSZ007>012-019>026-033>040-048>060-102>105-290800-
NORTHEAST KANSAS

CITY           SKY/WX    TMP DP  RH WIND       PRES   REMARKS
CONCORDIA      CLEAR     63  54  72 S10       30.02S
EMPORIA        CLEAR     60  58  92 CALM      30.04S
LAWRENCE       CLEAR     58  57  97 CALM      30.02F
MANHATTAN      CLEAR     59  56  89 CALM      30.02S
OLATHE IND     CLEAR     60  59  96 S6        30.04S
OLATHE EXE     CLEAR     61  58  90 S3        30.03F
SALINA         CLEAR     61  58  90 CALM      30.03S
TOPEKA BILLARD CLEAR     61  59  93 CALM      30.02S
TOPEKA FORBES  PTCLDY    62  58  86 CALM      30.02S
$$




USA.gov is the U.S. government's official web portal to all federal, state and local government web resources and services.